Weather History for Adak, AK

Change the Weather History Date:

Tuesday, March 19, 2013

  Actual Average Record
Temperature  
Mean Temperature 38 °F -  
Max Temperature 39 °F 38 °F 44 °F (1967)
Min Temperature 37 °F 29 °F 12 °F (1985)
Degree Days  
Heating Degree Days 27    
Moisture  
Dew Point 35 °F    
Average Humidity 87    
Maximum Humidity 93    
Minimum Humidity 81    
Precipitation  
Precipitation 0.08 in - - ()
Sea Level Pressure  
Sea Level Pressure 30.16 in    
Wind  
Wind Speed 21 mph (ESE)    
Max Wind Speed 28 mph    
Max Gust Speed 36 mph    
Visibility 8 miles    
Events      
Averages and records for this station are not official NWS values.
T = Trace of Precipitation, MM = Missing Value Source: NWS Daily Summary

Daily Weather History Graph

Daily Weather History Graph

Search for Another Location

Airport:

Trip Planner

Search our weather history database for the weather conditions in past years. The results will help you decide how hot, cold, wet, or windy it might be!

Date:

Astronomy

Mar. 19, 2013 Rise Set
Actual Time 8:50 AM HADT 8:59 PM HADT
Civil Twilight 8:16 AM HADT 9:32 PM HADT
Nautical Twilight 7:37 AM HADT 10:12 PM HADT
Astronomical Twilight 6:55 AM HADT 10:53 PM HADT
Moon 1:13 PM HADT (3/19) 4:36 AM HADT (3/19)
Length of Visible Light 13h 15m
Length of Day
12h 08m
First Quarter, 51% of the Moon is Illuminated
Mar 19
First Quarter
Mar 27
Full
Apr 2
Last Quarter
Apr 10
New
Apr 18
First Quarter

Hourly Weather History & Observations

Time (HADT) Temp. Windchill Dew Point Humidity Pressure Visibility Wind Dir Wind Speed Gust Speed Precip Events Conditions
12:16 AM 39.2 °F 28.5 °F 35.6 °F 87% 30.11 in 10.0 mi East 24.2 mph - N/A   Overcast
12:36 AM 39.2 °F 28.7 °F 35.6 °F 87% 30.11 in 10.0 mi East 23.0 mph - 0.03 in   Overcast
12:56 AM 39.2 °F 29.0 °F 35.6 °F 87% 30.11 in 10.0 mi East 21.9 mph - 0.05 in   Overcast
1:16 AM 39.2 °F 29.3 °F 35.6 °F 87% 30.12 in 6.0 mi East 20.7 mph 25.3 mph N/A   Overcast
1:36 AM 39.2 °F 30.5 °F 35.6 °F 87% 30.12 in 7.0 mi East 16.1 mph 21.9 mph N/A   Overcast
1:56 AM 39.2 °F 29.8 °F 35.6 °F 87% 30.12 in 8.0 mi East 18.4 mph - 0.01 in   Overcast
2:16 AM 39.2 °F 30.8 °F 35.6 °F 87% 30.13 in 6.0 mi East 15.0 mph - 0.01 in   Overcast
2:36 AM 39.2 °F 30.2 °F 35.6 °F 87% 30.13 in 5.0 mi East 17.3 mph 21.9 mph 0.01 in   Overcast
2:56 AM 39.2 °F 30.8 °F 35.6 °F 87% 30.13 in 10.0 mi East 15.0 mph - 0.01 in   Overcast
3:16 AM 39.2 °F 29.8 °F 35.6 °F 87% 30.13 in 10.0 mi East 18.4 mph - N/A   Overcast
3:36 AM 39.2 °F 29.3 °F 35.6 °F 87% 30.13 in 10.0 mi East 20.7 mph 27.6 mph N/A   Overcast
3:56 AM 39.2 °F 29.3 °F 35.6 °F 87% 30.14 in 10.0 mi East 20.7 mph 26.5 mph N/A   Overcast
4:16 AM 39.2 °F 28.5 °F 35.6 °F 87% 30.14 in 10.0 mi East 24.2 mph 29.9 mph 0.01 in   Overcast
4:36 AM 39.2 °F 29.6 °F 35.6 °F 87% 30.14 in 7.0 mi East 19.6 mph 25.3 mph 0.01 in   Overcast
4:56 AM 39.2 °F 28.5 °F 35.6 °F 87% 30.13 in 10.0 mi ESE 24.2 mph 28.8 mph 0.01 in   Overcast
5:16 AM 39.2 °F 27.8 °F 35.6 °F 87% 30.14 in 10.0 mi ESE 27.6 mph - N/A   Overcast
5:36 AM 39.2 °F 28.7 °F 35.6 °F 87% 30.13 in 10.0 mi ESE 23.0 mph 28.8 mph N/A   Overcast
5:56 AM 39.2 °F 28.5 °F 35.6 °F 87% 30.13 in 10.0 mi ESE 24.2 mph 31.1 mph N/A   Overcast
6:16 AM 39.2 °F 28.5 °F 35.6 °F 87% 30.13 in 10.0 mi ESE 24.2 mph 29.9 mph N/A   Overcast
6:36 AM 39.2 °F 29.0 °F 33.8 °F 81% 30.13 in 9.0 mi East 21.9 mph 27.6 mph N/A   Overcast
6:56 AM 39.2 °F 28.5 °F 35.6 °F 87% 30.14 in 10.0 mi ESE 24.2 mph - N/A   Overcast
7:16 AM 39.2 °F 28.7 °F 35.6 °F 87% 30.14 in 8.0 mi ESE 23.0 mph - N/A   Overcast
7:36 AM 39.2 °F 29.6 °F 35.6 °F 87% 30.15 in 9.0 mi ESE 19.6 mph 24.2 mph N/A   Overcast
7:56 AM 39.2 °F 30.2 °F 35.6 °F 87% 30.15 in 10.0 mi East 17.3 mph 25.3 mph 0.01 in   Overcast
8:16 AM 39.2 °F 30.2 °F 35.6 °F 87% 30.16 in 10.0 mi East 17.3 mph - N/A   Overcast
8:36 AM 39.2 °F 30.8 °F 35.6 °F 87% 30.16 in 10.0 mi East 15.0 mph 21.9 mph 0.02 in   Overcast
8:56 AM 39.2 °F 30.8 °F 35.6 °F 87% 30.16 in 6.0 mi East 15.0 mph 23.0 mph 0.02 in   Overcast
9:16 AM 37.4 °F 27.8 °F 35.6 °F 93% 30.17 in 5.0 mi East 17.3 mph - N/A   Overcast
9:36 AM 37.4 °F 28.9 °F 35.6 °F 93% 30.17 in 5.0 mi East 13.8 mph - N/A   Overcast
9:56 AM 39.2 °F 29.8 °F 35.6 °F 87% 30.18 in 10.0 mi East 18.4 mph - N/A   Overcast
10:16 AM 39.2 °F 30.5 °F 35.6 °F 87% 30.18 in 10.0 mi East 16.1 mph 25.3 mph N/A   Overcast
10:36 AM 39.2 °F 28.5 °F 35.6 °F 87% 30.18 in 10.0 mi East 24.2 mph 27.6 mph 0.04 in   Overcast
10:56 AM 39.2 °F 28.3 °F 33.8 °F 81% 30.19 in 9.0 mi ESE 25.3 mph 28.8 mph 0.04 in   Overcast
11:16 AM 39.2 °F 28.7 °F 35.6 °F 87% 30.19 in 8.0 mi ESE 23.0 mph 28.8 mph 0.01 in   Overcast
11:36 AM 39.2 °F 28.7 °F 35.6 °F 87% 30.19 in 5.0 mi ESE 23.0 mph 31.1 mph 0.01 in   Overcast
11:56 AM 39.2 °F 28.5 °F 35.6 °F 87% 30.19 in 5.0 mi ESE 24.2 mph 33.4 mph 0.01 in   Overcast
12:16 PM 39.2 °F 28.0 °F 35.6 °F 87% 30.19 in 5.0 mi ESE 26.5 mph 32.2 mph N/A   Overcast
12:36 PM 39.2 °F 28.3 °F 35.6 °F 87% 30.19 in 7.0 mi ESE 25.3 mph 29.9 mph 0.01 in   Overcast
12:56 PM 39.2 °F 28.3 °F 35.6 °F 87% 30.19 in 8.0 mi ESE 25.3 mph - 0.02 in   Overcast
1:16 PM 39.2 °F 28.5 °F 35.6 °F 87% 30.19 in 9.0 mi ESE 24.2 mph 31.1 mph 0.01 in   Overcast
1:36 PM 39.2 °F 28.7 °F 35.6 °F 87% 30.18 in 7.0 mi East 23.0 mph 29.9 mph 0.01 in   Overcast
1:56 PM 39.2 °F 28.0 °F 35.6 °F 87% 30.18 in 5.0 mi ESE 26.5 mph 29.9 mph 0.01 in   Overcast
2:16 PM 39.2 °F 28.3 °F 35.6 °F 87% 30.18 in 10.0 mi ESE 25.3 mph 32.2 mph N/A   Overcast
2:36 PM 39.2 °F 28.0 °F 35.6 °F 87% 30.18 in 8.0 mi ESE 26.5 mph 31.1 mph N/A   Overcast
2:56 PM 39.2 °F 28.3 °F 35.6 °F 87% 30.18 in 7.0 mi ESE 25.3 mph 29.9 mph N/A   Overcast
3:16 PM 39.2 °F 28.0 °F 35.6 °F 87% 30.18 in 7.0 mi ESE 26.5 mph 35.7 mph N/A   Overcast
3:36 PM 39.2 °F 27.8 °F 35.6 °F 87% 30.17 in 5.0 mi ESE 27.6 mph 31.1 mph N/A   Overcast
3:56 PM 39.2 °F 28.5 °F 35.6 °F 87% 30.17 in 7.0 mi ESE 24.2 mph 34.5 mph N/A   Overcast
4:16 PM 39.2 °F 28.5 °F 35.6 °F 87% 30.16 in 9.0 mi ESE 24.2 mph 33.4 mph N/A   Overcast
4:36 PM 39.2 °F 28.5 °F 35.6 °F 87% 30.16 in 9.0 mi ESE 24.2 mph 27.6 mph N/A   Overcast
4:56 PM 39.2 °F 29.3 °F 35.6 °F 87% 30.16 in 10.0 mi ESE 20.7 mph 25.3 mph N/A   Overcast
5:16 PM 39.2 °F 29.0 °F 35.6 °F 87% 30.16 in 10.0 mi ESE 21.9 mph 29.9 mph N/A   Overcast
5:36 PM 39.2 °F 28.7 °F 33.8 °F 81% 30.16 in 10.0 mi ESE 23.0 mph 29.9 mph N/A   Overcast
5:56 PM 39.2 °F 28.7 °F 33.8 °F 81% 30.15 in 10.0 mi ESE 23.0 mph 28.8 mph N/A   Overcast
6:16 PM 39.2 °F 28.7 °F 35.6 °F 87% 30.15 in 10.0 mi ESE 23.0 mph 29.9 mph N/A   Overcast
6:36 PM 39.2 °F 29.0 °F 33.8 °F 81% 30.15 in 9.0 mi ESE 21.9 mph - N/A   Overcast
6:56 PM 39.2 °F 28.3 °F 35.6 °F 87% 30.15 in 8.0 mi East 25.3 mph 28.8 mph N/A   Overcast
7:16 PM 37.4 °F 28.5 °F 35.6 °F 93% 30.15 in 4.0 mi East 15.0 mph - N/A   Overcast
7:36 PM 37.4 °F 27.2 °F 35.6 °F 93% 30.15 in 3.0 mi ESE 19.6 mph 26.5 mph N/A   Overcast
7:56 PM 37.4 °F 25.9 °F 35.6 °F 93% 30.15 in 7.0 mi ESE 25.3 mph 28.8 mph N/A   Overcast
8:16 PM 37.4 °F 26.9 °F 35.6 °F 93% 30.15 in 10.0 mi ESE 20.7 mph - N/A   Overcast
8:36 PM 37.4 °F 26.6 °F 35.6 °F 93% 30.15 in 10.0 mi ESE 21.9 mph 26.5 mph N/A   Overcast
8:56 PM 37.4 °F 27.2 °F 33.8 °F 87% 30.15 in 10.0 mi ESE 19.6 mph 27.6 mph N/A   Overcast
9:16 PM 37.4 °F 26.1 °F 33.8 °F 87% 30.16 in 10.0 mi ESE 24.2 mph 27.6 mph N/A   Overcast
9:36 PM 37.4 °F 26.6 °F 33.8 °F 87% 30.16 in 6.0 mi ESE 21.9 mph - N/A   Overcast
9:56 PM 37.4 °F 26.9 °F 33.8 °F 87% 30.16 in 10.0 mi ESE 20.7 mph 29.9 mph N/A   Overcast
10:16 PM 37.4 °F 26.4 °F 33.8 °F 87% 30.16 in 7.0 mi ESE 23.0 mph 29.9 mph N/A   Overcast
10:36 PM 37.4 °F 27.5 °F 33.8 °F 87% 30.16 in 10.0 mi East 18.4 mph 27.6 mph N/A   Overcast
10:56 PM 37.4 °F 26.6 °F 33.8 °F 87% 30.16 in 10.0 mi ESE 21.9 mph 27.6 mph N/A   Overcast
11:16 PM 37.4 °F 26.6 °F 33.8 °F 87% 30.16 in 10.0 mi ESE 21.9 mph 27.6 mph N/A   Overcast
11:36 PM 37.4 °F 26.6 °F 33.8 °F 87% 30.16 in 10.0 mi East 21.9 mph - N/A   Overcast
11:56 PM 37.4 °F 26.9 °F 33.8 °F 87% 30.16 in 8.0 mi ESE 20.7 mph 24.2 mph N/A   Overcast